Погода в Напасе

Погода в Напасе : погода сейчас, прогноз погоды и архив. Всё, что Вы хотите узнать о погоде в Напасе!

Хотите узнать прогноз погоды в Напасе? Тогда Вам сюда: Погода в Напасе

Поиск расширенной информации на нашем сайте:

Другие новости

Новости СМИ2

Главная страница сайта

Новости сайта

03.07.2017

Напоминаем, что на нашем специализированном сайте Метеоцентр.Азия вы можете получить высокодетализированные автоматические прогнозы погоды по пунктам России, СНГ и мира в авиационном формате (включающие направление и скорость ветра, видимость, явления погоды, количество и форму облачности, нижнюю и верхнюю границу облачности).

Рекомендуем: Самая актуальная информация запчасти лиаз в казахстане тут.

Погода в Напасе - сегодня

Время (UTC), дата Ветер
(°,м/с) 
Видим.   Явления Облачность Т
(°С)
Тd
(°С)
f(%) Тe
(°С)
Pmin
(гПа)
dP
(гПа)
Po
(мм)
O2
(г/м3)
Тmin Tmax R s Состояние
почвы
09 18.11.17 190 (Ю) 4000 м  слаб. ливневой снег  10/10 210 м кучево-дожд. 
[Cb cap]
+0.4 -0.7 92 1014.4  -0.4  754  303           
12 18.11.17 180 (Ю) 4000 м  слаб. ливневой снег  10/10 210 м кучево-дожд. 
[Cb cap]
-0.1 -0.7 96 -1  1013.6  -0.8  753  304    +0.4     
15 18.11.17 120 (ЮВ) 4000 м  слаб. ливневой снег  10/10 210 м кучево-дожд. 
[Cb cap]
-0.4 -1 96 -1  1011.7  -1.9  752  303           
21 18.11.17 310 (СЗ) 4{10}  4000 м  слаб. ливневой снег  10/10 240 м кучево-дожд. 
[Cb cap]
-3.8 -5 91 -7  1009.6  0.1  750  307           
00 19.11.17 310 (СЗ) 4{10}  4000 м  слаб. ливневой снег  10/10 210 м кучево-дожд. 
[Cb cap]
-7.1 -8.8 88 -11  1012.2  2.4  752  312  -7.1    31  равномерный
сухой снег
100% 
03 19.11.17 250 (З) 1{11}  4000 м  слаб. ливневой снег  10/10 210 м кучево-дожд. 
[Cb cap]
-9 -10.1 92 -9  1014.9  2.6  754  315  -9         
06 19.11.17 280 (З) 4000 м  слаб. ливневой снег  9/9 240 м кучево-дожд. 
[Cb cap]
-7.7 -9.5 87 -9  1016.2  1.4  755  314           
09 19.11.17 260 (З) 4000 м  слаб. ливневой снег  10/10 330 м кучево-дожд. 
[Cb cap]
-7.5 -8.8 90 -9  1018.1  1.8  756  314           
12 19.11.17 250 (З) 10 км  слаб. ливневой снег  10/4 300 м кучево-дожд., средняя, верхняя 
[Cb cap|Ac trans|Ci fib]
-8.6 -11.4 80 -10  1020  1.9  758  316    -7.1  0.7     
15 19.11.17 290 (З) 4000 м  слаб. ливневой снег  10/10 420 м кучево-дожд. 
[Cb cap]
-9.2 -11.2 85 -9  1021.7  1.6  759  317           
21 19.11.17 тихо ()   4000 м  слаб. ливневой снег  9/9 420 м кучево-дожд. 
[Cb cap]
-16.1 -18 85 -16  1024.9  1.4  761  327           
00 20.11.17 270 (З) 4000 м  слаб. ливневой снег  10/10 360 м кучево-дожд. 
[Cb cap]
-14.1 -15.4 90 -14  1026.1  1.2  762  325  -16.7    0.3  31  равномерный
сухой снег
100% 
03 20.11.17 тихо ()   4000 м  дымка{ливн. осадки}  10/10 210 м 
[St]
-16.8 -18.1 90 -17  1026.4  0.2  762  329  -17.3         
06 20.11.17 тихо ()   4000 м  слаб. ливневой снег  9/6 210 м кучево-дожд., средняя 
[Cb cap|Ac trans]
-14 -16 85 -14  1026.5  0.2  762  325           
09 20.11.17 130 (ЮВ) 4000 м  слаб. ливневой снег  10/10 210 м кучево-дожд. 
[Cb cap]
-12.4 -14.4 85 -12  1026.1  -0.3  762  323           
12 20.11.17 140 (ЮВ) 4000 м  слаб. ливневой снег  10/10 270 м кучево-дожд. 
[Cb cap]
-9.6 -11.2 88 -11  1025.8  -0.3  762  319    -9.6     
15 20.11.17 160 (Ю) 4000 м  слаб. ливневой снег  10/10 210 м кучево-дожд. 
[Cb cap]
-7.6 -9.6 86 -9  1024.8  -0.9  761  316           
21 20.11.17 230 (ЮЗ) 4000 м  дымка{ливн. осадки}  10/10 300 м 
[St]
-2.4 -3 96 -3  1023.6  0.1  760  309           
00 21.11.17 240 (ЮЗ) 4000 м  слаб. ливневой снег  10/10 210 м кучево-дожд. 
[Cb cap]
-2.1 -3 94 -3  1023.6  0.1  760  309  -9.9    0.5  33  равномерный
сухой снег
100% 
03 21.11.17 270 (З) 4000 м  слаб. ливневой снег  10/10 270 м кучево-дожд. 
[Cb cap]
-2.4 -3.6 91 -3  1024.9  1.2  761  310           
06 21.11.17 270 (З) 4000 м  слаб. ливневой снег  10/10 270 м кучево-дожд. 
[Cb cap]
-2.4 -4 89 -3  1025.7  0.8  762  310           
09 21.11.17 220 (ЮЗ) 4000 м  слаб. ливневой снег  10/10 360 м кучево-дожд. 
[Cb cap]
-2.6 -5.2 82 -4  1025.6  -0.1  762  311           
12 21.11.17 220 (ЮЗ) 4000 м  слаб. ливневой снег  10/10 210 м кучево-дожд. 
[Cb cap]
-3.7 -4.8 92 -5  1024.2  -1.4  761  311    -2.1  0.3     
18 21.11.17 180 (Ю) 4000 м  слаб. ливневой снег  10/10 210 м кучево-дожд. 
[Cb cap]
-1.7 -2.8 92 -4  1019.4  -1.6  757  307           
00 22.11.17 290 (З) 4000 м  слаб. ливневой снег  10/10 210 м кучево-дожд. 
[Cb cap]
-0.7 -2.9 85 -3  1022.6  2.3  760  307  -3.7    34  равномерный
сухой снег
100% 
Время (UTC), дата Ветер
(°,м/с) 
Видим.   Явления Облачность Т
(°С)
Тd
(°С)
f(%) Тe
(°С)
Pmin
(гПа)
dP
(гПа)
Po
(мм)
O2
(г/м3)
Тmin Tmax R s Состояние
почвы

Для получения пояснительной информации подведите курсор к названию столбца.

ПОГОДА в Напасе - архив

Всё, что Вы хотите узнать о погоде в Напасе - удобно и подробно!

Выберите нужную дату (начиная с 1 января 2015* года) и нажмите кнопку "Найти".
Будут отображены архивные сводки погоды по пункту Напас, начиная с указанной даты.


Отображать данные в формате CSV (для использования в таблицах Excel)


Внимание! Наш архив погоды предназначен исключительно для личного некоммерческого использования в познавательных целях. Если Вам необходимы официальные справки о состоянии погоды (для производственных, юридических, коммерческих и т.п. целей), обращайтесь в органы Росгидромета.

*Примечание: данная дата относится к архиву по метеостанциям СССР (Россия, СНГ, Балтия).
Архив по метеостанциям Зарубежной Европы и Азии (кроме Китая) хранится 10 дней, по другим регионам земного шара (Китай, Африка, Америка, Австралия, Океания) - 1 день.

Напас - район местоположения метеостанции


Название, широта, долгота, высота метеостанции:
Напас 59.9°ш. 81.9°д. 76 м над ур. моря [Российская Федерация]

Дополнительная информация

В oтличие oт бoльшинства пoгoдных сайтoв мы публикуем пoдрoбную метеoинфoрмацию в детальнoм прoфессиoнальнoм фoрмате.

Характеристики температуры и влажнoсти вoздуха измеряются на высoте 2 м в тени вдали oт зданий и деревьев.
Скoрoсть ветра измеряется на высoте 10 м (на урoвне рoста челoвека скoрoсть ветра ниже в 1.5-2 раза). Если метеoстанция нахoдится в гoрoде или в лесу, тo скoрoсть ветра занижена на 2-4 м/с пo сравнению с oткрытым местoм. Скoрoсть ветра над акватoриями крупных рек и oзёр, а также на вершинах хoлмoв на 2-5 м/с выше, чем в oбычных услoвиях.
Атмoсфернoе давление в разных тoчках местнoсти мoжет значительнo oтличаться oт давления на метеoстанции, в зависимoсти oт услoвий рельефа (при пoдъёме на 10 м давление пoнижается примернo на 1 мм рт.ст.).